User: anonymous   Login
Location: Irma
(52.9170°N, 111.2330°W)
Time: 07:33:55
(UTC-06:00)
Language:

Cosmos 2279 Rocket - Orbit

View from above orbital plane
View from above orbital plane
View from above satellite
View from above satellite

Ground track
Ground track

The orbit data is extracted from the following two-line orbital elements,

1 23093U 94024B   16178.14344961  .00000086  00000-0  70585-4 0  9994
2 23093  82.9462  19.2938 0008733 284.5198  75.4990 13.77700370582408
Epoch (UTC): 26 June 2016 03:26:34
Eccentricity: 0.0008733
inclination: 82.9462°
perigee height: 965 km
apogee height: 978 km
right ascension of ascending node: 19.2938°
argument of perigee: 284.5198°
revolutions per day: 13.77700370
mean anomaly at epoch: 75.4990°
orbit number at epoch: 58240

The dashed part of the orbit path shows where the satellite is in the earth's shadow,  

DLR